[[{"header":{"parameterUnit":"m.s-1","parameterCategory":1,"la1":30.2991,"la2":30.254,"lo1":-89.0895,"lo2":-89.0444,"dy":0.0017,"dx":0.0017,"nx":28,"ny":28,"refTime":"2024-02-25T03:00:00:Z","depth":0,"parameterNumber":2,"parameterNumberName":"U-component_of_WINDS"},"data":[0,0,0,0,0,0,0,0,0,0,0,0,0,0,0,0,0,0,0,0,0,0,0,0,0,0,0,0,0,0,0,0,0,0,0,0,0,0,0,0,0,0,0,0,0,0,0,0,0,0,0,0,0,0,0,0,0,0,4.0156,4.0157,0,4.0164,4.0164,4.0164,4.0145,4.0144,4.0144,4.0143,4.015,4.0151,4.0152,0,0,0,0,0,0,0,0,0,0,0,0,0,4.013,4.0131,4.0156,4.0157,4.0157,4.0164,4.0164,4.0164,4.0145,4.0144,4.0144,4.0143,4.015,4.0151,4.0152,0,0,0,0,0,0,0,0,0,0,0,0,0,4.014,4.0131,4.0156,4.0148,4.0147,4.0164,4.0164,4.0164,4.0145,4.0144,4.0143,4.0143,4.015,4.0151,4.0152,4.0176,0,0,4.0155,4.0156,0,0,0,0,0,0,0,0,4.0139,4.0141,4.0149,4.0149,4.0148,4.0152,4.0157,4.0168,4.0145,4.0146,4.0143,4.0142,4.0152,4.0153,4.0156,4.0177,4.0177,4.0156,4.0156,4.0157,4.0157,0,0,0,0,0,0,0,4.0139,4.0141,4.0159,4.0149,4.0149,4.0145,4.0146,4.0159,4.0154,4.0146,4.0145,4.0146,4.0151,4.0155,4.0156,4.0177,4.0156,4.0157,4.0157,4.0158,4.0224,4.0225,0,0,0,0,0,0,4.0139,4.014,4.0159,4.0159,4.0142,4.0146,4.0147,4.0152,4.0154,4.0153,4.0146,4.0145,4.0153,4.0155,4.0156,4.0188,4.0157,4.0158,4.0158,4.0223,4.0224,4.0226,0,0,0,0,0,0,4.0138,4.0141,4.0159,4.015,4.0152,4.0148,4.0154,4.0153,4.0156,4.0154,4.0153,4.0151,4.0153,4.0155,4.0173,4.0188,4.0158,4.0159,4.0222,4.0223,4.0225,4.025,0,0,0,0,0,0,4.0138,4.0141,4.0149,4.015,4.0152,4.0174,4.0154,4.0153,4.0158,4.0156,4.0158,4.0157,4.0152,4.0171,4.0174,4.0189,4.016,4.022,4.0223,4.0224,4.0248,4.0253,4.0256,0,0,0,0,0,4.0137,4.0154,4.0149,4.0151,4.0162,4.0175,4.0176,4.017,4.0159,4.0168,4.0168,4.0157,4.0186,4.0173,4.0176,4.0192,4.0219,4.0222,4.0224,4.0246,4.0252,4.0256,0,0,0,0,0,0,4.0153,4.0154,4.0148,4.0166,4.0171,4.0172,4.0182,4.0175,4.0183,4.018,4.0173,4.0173,4.0194,4.0194,4.018,4.0218,4.0201,4.0204,4.0217,4.0222,4.0226,4.0226,4.0161,0,0,0,0,0,4.0159,4.0169,4.0169,4.0186,4.0188,4.0185,4.0191,4.0186,4.019,4.0192,4.0192,4.0197,4.0208,4.0215,4.0224,4.0249,4.0251,4.0261,4.0265,4.0269,4.0272,4.0289,4.0295,4.0234,4.0234,4.0234,0,0,4.0171,4.0173,4.0179,4.0189,4.0192,4.0204,4.0187,4.0199,4.0209,4.0194,4.0212,4.0213,4.0218,4.0241,4.0251,4.0242,4.029,4.0272,4.0275,4.0276,4.0292,4.0298,4.0303,4.0235,4.0235,4.0235,0,0,4.0199,4.02,4.0216,4.0221,4.0226,4.0225,4.0229,4.0232,4.0233,4.0251,4.0242,4.0254,4.0271,4.0276,4.0281,4.0318,4.031,4.0322,4.0344,4.0361,4.0365,4.037,4.0386,4.0391,4.0325,4.0325,4.0325,0,4.0213,4.023,4.0225,4.0239,4.0246,4.0235,4.0252,4.0257,4.0265,4.027,4.0261,4.0286,4.0288,4.0314,4.0324,4.0327,4.0334,4.0321,4.0365,4.0369,4.0373,4.0389,4.0394,4.0326,4.0326,4.0326,4.0326,0,4.0249,4.0261,4.0273,4.0284,4.0291,4.0307,4.0306,4.0315,4.0311,4.0312,4.0333,4.0337,4.0349,4.0355,4.035,4.0381,4.0377,4.0366,4.0349,4.0381,4.0395,4.0401,4.0328,4.0328,4.0327,4.0327,0,0,4.0283,4.0295,4.0299,4.0306,4.0314,4.0324,4.0342,4.0355,4.0364,4.0371,4.0387,4.0405,4.0397,4.0403,4.04,4.0415,4.0449,4.0403,4.0404,4.0414,4.0488,4.0496,4.0503,4.0444,4.0445,4.0445,4.0488,0,4.0313,4.0343,4.0341,4.0369,4.0383,4.0376,4.0392,4.04,4.0402,4.0415,4.0418,4.0432,4.0419,4.0423,4.0438,4.0441,4.0463,4.0438,4.046,4.0461,4.046,4.051,4.0517,4.0557,4.0493,4.0494,4.0495,0,4.035,4.0362,4.0392,4.0403,4.0409,4.0423,4.0437,4.0449,4.046,4.0461,4.0471,4.0467,4.0487,4.047,4.05,4.0483,4.0492,4.0496,4.0497,4.0499,4.048,4.0515,4.0569,4.0576,4.0503,4.0503,4.0502,0,4.0376,4.0399,4.0421,4.0427,4.0439,4.045,4.0456,4.0466,4.0475,4.0489,4.0495,4.051,4.0519,4.0532,4.0533,4.052,4.0565,4.0546,4.0568,4.0568,4.0577,4.0576,4.0635,4.0581,4.0581,4.0581,4.0581,0,4.0409,4.0429,4.0433,4.0447,4.047,4.047,4.0493,4.0498,4.0508,4.0524,4.0519,4.0535,4.0535,4.0552,4.0553,4.058,4.0583,4.0586,4.0586,4.0587,4.0587,4.0593,4.0591,4.0583,4.0582,4.0582,4.0582,0,4.044,4.0444,4.0469,4.048,4.0484,4.0501,4.0512,4.0526,4.053,4.0551,4.0556,4.0562,4.0583,4.0586,4.0608,4.061,4.0643,4.0639,4.0639,4.0639,4.0661,4.066,4.0727,4.0737,4.0675,4.0676,4.0676,0,4.0461,4.0477,4.0492,4.0503,4.051,4.0527,4.0539,4.0541,4.0552,4.0569,4.0583,4.0603,4.0619,4.0652,4.0659,4.0678,4.0676,4.0699,4.0679,4.0681,4.0679,4.0679,4.0682,4.0702,4.0703,4.0703,4.0704,0,4.05,4.0502,4.0518,4.0537,4.0551,4.0565,4.0578,4.0588,4.0592,4.0607,4.0628,4.0641,4.0667,4.0688,4.0708,4.0716,4.0712,4.0711,4.0717,4.0718,4.0718,4.0721,4.0651,4.0709,4.0708,4.0708,4.0708,4.0707,4.0527,4.0543,4.0557,4.0577,4.0588,4.0602,4.0618,4.0626,4.0644,4.0665,4.0666,4.0691,4.0706,4.0733,4.0743,4.0763,4.0756,4.0764,4.0767,4.0769,4.0773,4.0715,4.0767,4.0767,4.0766,4.0766,4.0766,0,4.0567,4.0577,4.0596,4.0617,4.0633,4.063,4.0646,4.066,4.0682,4.0697,4.0715,4.0742,4.0764,4.0775,4.0798,4.0813,4.0812,4.0819,4.0818,4.0821,4.0776,4.077,4.0819,4.0819,4.0819,4.0819,4.0819,4.0819,4.0589,4.0616,4.0622,4.0656,4.0666,4.0691,4.0701,4.0716,4.0728,4.0759,4.0778,4.0786,4.0801,4.0826,4.0847,4.085,4.0859,4.0868,4.087,4.0828,4.0823,4.0818,4.0812,4.0869,4.0869,4.0913,4.0913,4.0913]},{"header":{"parameterUnit":"m.s-1","parameterCategory":1,"la1":30.2991,"la2":30.254,"lo1":-89.0895,"lo2":-89.0444,"dy":0.0017,"dx":0.0017,"nx":28,"ny":28,"refTime":"2024-02-25T03:00:00:Z","depth":0,"parameterNumber":3,"parameterNumberName":"V-component_of_WINDS"},"data":[0,0,0,0,0,0,0,0,0,0,0,0,0,0,0,0,0,0,0,0,0,0,0,0,0,0,0,0,0,0,0,0,0,0,0,0,0,0,0,0,0,0,0,0,0,0,0,0,0,0,0,0,0,0,0,0,0,0,1.0407,1.041,0,1.0694,1.0697,1.07,1.0673,1.0668,1.0664,1.066,1.096,1.0972,1.0984,0,0,0,0,0,0,0,0,0,0,0,0,0,0.984,0.9851,1.0407,1.041,1.0414,1.0693,1.0697,1.0701,1.0674,1.0668,1.0663,1.0658,1.0956,1.0971,1.0985,0,0,0,0,0,0,0,0,0,0,0,0,0,1.0103,0.9854,1.0406,1.0434,1.0439,1.0692,1.0697,1.0702,1.0675,1.0668,1.0661,1.0655,1.0951,1.0969,1.0987,1.1234,0,0,1.1043,1.1051,0,0,0,0,0,0,0,0,1.0088,1.0123,1.0426,1.0432,1.0439,1.064,1.0608,1.0881,1.0677,1.0586,1.066,1.0652,1.086,1.0885,1.0954,1.1248,1.1261,1.1045,1.1056,1.1063,1.1069,0,0,0,0,0,0,0,1.007,1.0111,1.052,1.043,1.0438,1.0433,1.0463,1.0659,1.0757,1.0593,1.0592,1.0626,1.0862,1.0936,1.0961,1.1265,1.1044,1.106,1.1071,1.1079,1.1775,1.1782,0,0,0,0,0,0,1.0044,1.0096,1.0511,1.0529,1.0243,1.0449,1.0482,1.0583,1.0755,1.0774,1.0631,1.0623,1.0908,1.0939,1.0971,1.1271,1.1063,1.108,1.1091,1.1767,1.1777,1.1785,0,0,0,0,0,0,1.0032,1.0081,1.05,1.0312,1.0365,1.0466,1.0579,1.0592,1.0666,1.0783,1.0801,1.0689,1.0904,1.0945,1.1168,1.1281,1.1089,1.1105,1.1759,1.177,1.1781,1.1872,0,0,0,0,0,0,1.0016,1.0077,1.0171,1.0314,1.0375,1.0691,1.0586,1.0602,1.0697,1.0689,1.0842,1.0861,1.0902,1.1141,1.1186,1.1303,1.1119,1.1749,1.1764,1.1777,1.186,1.1885,1.1907,0,0,0,0,0,0.9996,1.0187,1.0176,1.0226,1.0494,1.0697,1.0732,1.0774,1.0706,1.0802,1.0877,1.0856,1.1261,1.1164,1.1215,1.1338,1.1742,1.176,1.1776,1.1849,1.188,1.1907,0,0,0,0,0,0,1.0057,1.0206,1.0196,1.0439,1.0555,1.0692,1.0814,1.0806,1.0946,1.0933,1.098,1.1015,1.1239,1.1311,1.12,1.1585,1.1493,1.1521,1.1531,1.1561,1.1585,1.1563,1.1135,0,0,0,0,0,1.0098,1.0248,1.0372,1.0574,1.0633,1.0713,1.0804,1.0825,1.0949,1.0999,1.109,1.1212,1.1367,1.1468,1.1617,1.1869,1.1902,1.1979,1.2003,1.2022,1.2046,1.2184,1.222,1.1841,1.184,1.184,0,0,1.0186,1.0286,1.0379,1.0589,1.0682,1.0838,1.0755,1.0925,1.1042,1.1025,1.124,1.1311,1.1451,1.1689,1.1799,1.1756,1.2157,1.2043,1.2058,1.2072,1.2205,1.2241,1.2273,1.1852,1.185,1.1848,0,0,1.0426,1.0516,1.0694,1.0788,1.0929,1.0981,1.1023,1.1162,1.1208,1.1424,1.1414,1.1554,1.182,1.1919,1.2005,1.228,1.2266,1.2327,1.2452,1.2587,1.2616,1.2643,1.2742,1.2776,1.235,1.2351,1.2351,0,1.0518,1.0751,1.0788,1.0958,1.1051,1.104,1.1222,1.1312,1.1495,1.156,1.1508,1.184,1.1933,1.2194,1.2261,1.233,1.2381,1.2311,1.2609,1.2636,1.2662,1.2756,1.2793,1.2357,1.2356,1.2356,1.2355,0,1.0857,1.1019,1.1147,1.1321,1.1428,1.1603,1.1668,1.1772,1.1784,1.1842,1.2062,1.2173,1.2343,1.2406,1.2421,1.267,1.2639,1.2598,1.2506,1.2703,1.2793,1.2829,1.2366,1.2364,1.2362,1.236,0,0,1.1146,1.1336,1.1382,1.1461,1.1614,1.1741,1.1915,1.208,1.2168,1.2294,1.2443,1.2666,1.2628,1.2725,1.275,1.2868,1.3079,1.2812,1.2816,1.2858,1.336,1.3391,1.3432,1.307,1.3077,1.3082,1.3349,0,1.1402,1.1709,1.1746,1.202,1.217,1.2161,1.2313,1.2424,1.2482,1.262,1.2684,1.2842,1.278,1.2838,1.2954,1.3028,1.318,1.301,1.321,1.3217,1.3176,1.3479,1.3513,1.3759,1.3384,1.339,1.3394,0,1.1741,1.1874,1.2162,1.2293,1.2357,1.2493,1.2646,1.2777,1.2903,1.2937,1.3044,1.3053,1.3235,1.3134,1.3385,1.3268,1.3352,1.3401,1.3411,1.3433,1.3318,1.3509,1.3838,1.3875,1.345,1.3445,1.3441,0,1.1923,1.2174,1.2378,1.2446,1.2604,1.2699,1.277,1.2889,1.2985,1.3119,1.3182,1.3336,1.3421,1.3541,1.3592,1.3514,1.3841,1.3744,1.3875,1.3874,1.3946,1.3941,1.4293,1.3998,1.3998,1.3997,1.3996,0,1.2205,1.2382,1.2462,1.2588,1.2786,1.2827,1.3022,1.3089,1.3195,1.3335,1.3337,1.3468,1.3527,1.3668,1.3709,1.3911,1.3949,1.3983,1.3992,1.3984,1.3979,1.404,1.4025,1.4007,1.4005,1.4003,1.4001,0,1.2443,1.2503,1.2725,1.2856,1.2892,1.3033,1.3145,1.3267,1.3323,1.35,1.3544,1.3632,1.3798,1.386,1.4063,1.409,1.4324,1.4319,1.4281,1.4283,1.4411,1.4398,1.4816,1.4873,1.4539,1.4542,1.4545,0,1.2619,1.2754,1.2898,1.299,1.3064,1.3213,1.331,1.3356,1.3457,1.361,1.3714,1.3878,1.4012,1.4278,1.4361,1.4516,1.4515,1.4651,1.4539,1.4525,1.4518,1.4509,1.4523,1.4672,1.4675,1.4678,1.468,0,1.2926,1.2948,1.3087,1.3237,1.3352,1.3472,1.3589,1.3665,1.3729,1.3843,1.4011,1.4115,1.432,1.4484,1.4642,1.4716,1.471,1.4714,1.4753,1.4746,1.4719,1.4736,1.4338,1.4705,1.4703,1.4701,1.47,1.4699,1.3139,1.3258,1.3377,1.3532,1.3624,1.3733,1.3854,1.3923,1.4064,1.4233,1.4252,1.4433,1.4554,1.4766,1.4847,1.499,1.4954,1.501,1.5024,1.5037,1.5046,1.4695,1.5019,1.5018,1.5018,1.5017,1.5017,0,1.3446,1.3521,1.3663,1.3825,1.3947,1.3927,1.4055,1.4158,1.4317,1.443,1.4561,1.4754,1.4912,1.5006,1.5165,1.5261,1.5262,1.5301,1.5295,1.5312,1.507,1.502,1.5298,1.5297,1.5297,1.5297,1.5297,1.5297,1.362,1.3821,1.3857,1.4104,1.4179,1.4354,1.4429,1.453,1.462,1.4835,1.4965,1.5024,1.513,1.5296,1.5441,1.5464,1.5523,1.5566,1.5587,1.5358,1.533,1.5302,1.5256,1.5578,1.5578,1.5817,1.582,1.5821]}]]